Temperature
14 13 12 13 13 11 12 15 15 17 16 17 18 17 14 10 7 4 2 1 2 2 1 0 -1 -1 -2 -3 -3 -4 -5 -5 -6 -7 -7 -8 -8 -9 -9 -10 -11 -11 -11 -11
13 11 10 10 11 11 11 12 13 14 14 16 16 13 10 8 6 4 3 3 2 2 1 0 -0 -1 -2 -3 -3 -4 -5 -5 -6 -6 -7 -8 -8 -9 -9 -10 -10 -11 -11 -11
15 12 11 14 14 11 10 11 12 13 16 17 13 12 11 9 7 7 6 4 3 3 2 1 -0 -1 -2 -3 -3 -4 -5 -5 -6 -6 -7 -8 -8 -9 -9 -9 -10 -10 -11 -11
13 14 14 19 13 12 11 12 11 12 14 14 13 11 10 10 8 8 7 5 4 3 1 0 -1 -1 -2 -3 -3 -4 -5 -5 -6 -6 -7 -7 -8 -8 -9 -9 -10 -10 -10 -11
11 13 16 17 11 10 11 14 14 12 13 13 9 7 11 13 12 10 8 6 5 3 1 0 -1 -1 -2 -2 -3 -4 -5 -5 -6 -6 -7 -7 -7 -8 -8 -9 -9 -10 -10 -10
9 12 15 18 12 9 12 14 15 12 13 12 6 12 15 12 11 9 7 5 4 2 1 0 -1 -1 -2 -2 -3 -4 -4 -5 -6 -6 -6 -7 -7 -7 -8 -8 -9 -9 -10 -10
9 11 14 15 8 10 15 18 18 15 14 12 9 13 13 11 10 9 7 5 3 2 1 0 -1 -1 -2 -2 -3 -4 -4 -5 -5 -6 -6 -6 -7 -7 -7 -8 -8 -9 -10 -10
10 11 13 11 9 13 18 18 17 17 16 14 14 13 12 11 9 8 7 5 3 2 1 -0 -1 -1 -2 -2 -3 -4 -4 -5 -5 -6 -6 -6 -6 -6 -7 -7 -8 -9 -10 -10
12 15 15 11 14 16 17 17 18 17 16 15 13 13 12 11 9 8 6 5 3 2 1 -0 -1 -1 -2 -2 -3 -3 -4 -5 -5 -5 -5 -5 -6 -6 -6 -7 -8 -10 -10 -10
10 12 12 12 14 16 17 17 18 17 16 15 14 14 12 11 9 8 6 5 3 2 1 0 -1 -1 -2 -2 -3 -3 -4 -4 -5 -5 -5 -5 -5 -5 -6 -6 -8 -10 -10 -11
11 13 12 14 17 19 19 18 18 18 17 16 15 14 13 11 10 8 7 5 3 2 1 1 -0 -1 -2 -2 -3 -3 -4 -4 -4 -5 -4 -5 -5 -5 -6 -6 -7 -9 -10 -11
15 16 14 17 19 18 18 18 18 17 17 16 15 14 13 12 10 8 7 6 4 3 1 0 -1 -1 -2 -2 -3 -3 -4 -4 -4 -4 -4 -4 -4 -5 -5 -6 -6 -7 -8 -10
17 17 17 17 18 18 17 17 17 17 16 15 15 14 12 11 10 8 7 6 5 3 2 1 -0 -1 -2 -2 -3 -3 -3 -4 -4 -4 -4 -4 -5 -5 -5 -5 -6 -6 -7 -8
16 15 14 16 16 17 17 17 17 16 16 15 14 13 12 11 9 8 7 6 5 3 2 1 -0 -1 -2 -2 -2 -3 -3 -4 -4 -4 -4 -5 -5 -5 -5 -5 -6 -6 -7 -7
15 15 15 16 16 16 16 16 16 16 16 16 14 13 12 11 10 9 8 6 4 3 2 1 -0 -1 -2 -2 -2 -3 -3 -4 -4 -4 -5 -5 -5 -5 -5 -6 -6 -6 -6 -7
15 15 15 15 15 16 16 15 15 16 17 16 15 14 13 12 10 9 7 6 4 3 2 1 1 -0 -1 -2 -2 -3 -3 -4 -4 -4 -5 -5 -5 -5 -5 -6 -6 -6 -7 -7
13 13 13 13 14 15 15 15 16 16 16 16 15 14 12 10 9 8 7 6 5 4 3 2 1 -0 -1 -2 -2 -2 -3 -4 -4 -4 -5 -5 -5 -5 -6 -6 -6 -7 -7 -7
12 13 13 13 14 14 15 15 15 15 15 15 13 11 11 10 10 9 7 6 4 3 3 2 1 -0 -1 -2 -2 -3 -3 -3 -4 -4 -5 -5 -5 -5 -6 -6 -6 -7 -7 -7
14 14 14 14 14 13 13 13 13 13 12 11 11 10 11 11 10 9 7 6 5 4 3 2 1 -1 -1 -2 -2 -2 -3 -3 -4 -4 -5 -5 -5 -5 -6 -6 -6 -7 -7 -7
12 12 12 12 12 12 12 12 11 11 11 10 10 9 10 10 9 7 7 6 6 5 4 2 1 -0 -1 -1 -2 -2 -3 -3 -4 -4 -5 -5 -5 -6 -6 -6 -7 -7 -7 -8
11 11 10 10 10 11 11 10 10 10 10 10 10 10 10 9 8 7 6 6 6 5 4 3 1 0 -0 -1 -2 -2 -3 -3 -4 -4 -4 -5 -5 -6 -6 -6 -7 -7 -7 -8
9 9 9 9 9 9 10 10 9 9 9 9 10 9 8 7 7 7 7 6 6 5 4 3 1 1 -0 -1 -2 -2 -2 -3 -3 -4 -4 -5 -5 -6 -6 -6 -7 -7 -7 -8
8 8 8 8 8 8 9 9 9 9 8 8 8 8 8 7 7 7 7 6 5 5 4 3 2 1 -0 -1 -2 -2 -2 -3 -3 -4 -4 -5 -5 -6 -6 -6 -7 -7 -7 -8
7 7 8 8 8 8 8 8 8 8 8 7 6 5 5 4 5 5 6 6 5 5 4 3 2 1 -0 -1 -1 -2 -2 -3 -3 -3 -4 -5 -5 -5 -6 -6 -7 -7 -8 -8
6 6 6 7 7 7 7 7 7 7 7 6 5 4 3 3 3 4 4 5 5 4 4 3 2 1 -0 -1 -1 -1 -2 -2 -3 -3 -4 -4 -5 -5 -6 -6 -7 -7 -8 -8
5 5 5 6 6 6 6 6 6 6 6 5 4 3 2 1 1 1 2 3 4 4 4 3 2 0 -0 -0 -1 -1 -2 -2 -3 -3 -4 -4 -5 -5 -6 -6 -7 -7 -8 -8
3 3 4 4 5 5 5 5 5 5 5 4 3 2 1 0 -0 0 1 2 2 2 3 2 2 1 0 0 -1 -1 -2 -2 -3 -3 -3 -4 -5 -5 -6 -6 -7 -7 -8 -8
Wind_Speed
8 5 4 8 11 14 16 14 12 13 14 20 19 16 12 8 7 11 14 16 16 15 12 11 10 8 7 5 4 5 6 7 8 9 10 10 11 11 12 12 13 13 14 15
5 4 6 9 15 18 18 15 18 21 21 23 18 11 9 9 10 13 16 17 17 15 13 12 11 9 7 6 4 5 6 7 8 8 9 10 11 11 12 12 13 13 13 14
4 2 5 11 13 18 11 13 13 15 14 10 8 11 12 10 12 15 16 17 18 17 15 13 12 10 8 6 5 5 7 7 8 8 9 10 11 11 12 12 13 13 14 14
4 3 9 5 3 11 11 11 17 16 16 15 14 11 11 12 13 14 15 17 17 15 14 12 11 10 8 6 6 6 7 7 8 8 9 11 11 12 13 12 12 12 14 15
3 5 10 6 6 8 9 9 14 19 20 17 4 8 10 11 14 14 15 16 16 15 14 13 12 10 9 7 6 7 7 8 8 8 10 11 12 12 12 12 12 12 13 14
4 5 8 4 5 5 4 7 7 13 16 10 2 8 8 4 9 12 12 13 13 14 14 13 12 11 9 8 7 8 7 7 8 9 10 11 12 13 12 12 12 13 13 14
8 8 11 2 7 8 5 5 3 11 12 9 10 11 2 4 8 11 13 14 14 15 14 13 12 12 10 9 9 7 6 7 9 9 10 11 11 11 12 11 12 12 13 14
8 8 11 8 11 11 8 2 3 7 9 11 15 11 6 7 9 13 14 15 16 15 13 12 13 12 11 10 8 6 6 7 9 9 9 8 10 11 11 10 11 12 12 13
13 11 3 13 12 9 3 5 7 7 9 11 13 13 11 10 12 14 15 16 16 15 14 13 13 13 12 9 7 6 6 7 8 8 8 8 9 10 9 8 8 10 11 11
9 15 11 13 16 14 13 15 17 13 11 11 14 14 13 12 13 15 16 17 16 16 15 14 14 14 12 9 8 7 7 7 7 7 8 8 7 7 7 7 8 10 11 11
12 11 9 14 18 22 20 20 20 18 16 16 16 16 15 14 15 16 16 17 17 17 17 16 15 14 12 10 9 8 7 6 6 6 7 7 6 6 7 7 8 10 10 10
15 10 10 11 7 9 14 18 17 16 15 14 16 17 15 15 15 16 17 18 18 18 17 16 15 14 13 12 11 9 7 6 5 5 5 6 6 6 6 6 10 11 11 12
21 10 11 15 11 10 14 16 14 15 16 15 14 15 15 14 15 17 18 20 21 20 18 16 15 14 14 13 12 10 8 6 4 4 5 5 6 6 7 6 7 7 10 13
19 11 11 16 19 20 19 16 12 12 14 14 12 13 14 15 15 18 20 21 20 19 18 17 16 15 14 14 13 11 9 7 6 5 4 5 5 5 6 7 8 7 8 11
19 17 20 22 21 19 15 10 11 15 15 14 13 14 16 18 19 20 19 18 18 18 18 17 17 16 15 14 14 12 9 7 6 5 4 4 4 5 5 6 6 7 7 8
14 13 18 21 26 28 23 19 20 23 19 16 16 18 19 19 17 17 18 20 21 21 20 19 18 16 16 15 14 11 9 10 8 5 4 4 4 4 4 5 5 6 6 7
17 19 21 22 28 30 27 24 23 23 18 17 17 16 16 16 17 18 19 21 21 20 20 20 18 16 16 16 14 10 9 9 11 7 5 4 4 4 3 4 4 5 5 6
28 29 27 23 25 28 26 21 19 18 17 13 12 15 18 21 22 21 20 19 18 17 18 18 17 16 16 16 13 10 9 8 8 7 5 5 4 4 3 3 4 5 5 6
24 25 26 26 27 25 23 20 15 12 10 10 14 18 20 21 20 19 20 21 21 21 19 18 23 19 17 18 16 10 10 9 8 7 6 6 5 4 4 3 3 4 5 5
20 21 21 21 20 17 18 16 13 11 10 13 16 17 19 19 18 19 21 21 20 16 17 20 21 17 17 18 19 11 11 11 10 8 7 6 6 5 4 3 3 3 4 4
17 16 15 16 18 18 17 15 14 14 12 15 18 19 19 17 19 19 20 19 17 15 19 26 19 16 16 17 20 12 12 11 10 9 8 7 6 6 5 4 3 3 3 4
12 13 15 15 16 17 15 12 12 13 12 14 17 16 15 17 20 20 20 14 16 22 18 17 16 20 21 21 15 13 13 12 10 9 9 8 7 6 6 5 4 3 3 3
13 13 14 13 13 14 14 12 11 11 12 13 15 16 17 16 16 17 17 14 15 25 20 17 21 28 29 19 14 14 14 13 12 11 10 9 8 7 6 6 4 3 3 3
13 12 11 10 9 9 12 12 9 9 10 11 11 13 14 13 14 15 9 18 23 26 18 21 30 32 30 16 14 14 13 13 12 11 10 9 8 7 6 6 5 4 3 3
12 11 10 9 9 10 10 9 8 8 8 8 9 11 12 12 11 12 11 17 25 26 17 22 31 32 23 15 15 15 14 13 12 11 11 10 9 8 7 6 6 5 4 4
13 12 11 9 9 9 8 7 7 6 6 7 7 7 9 9 9 11 12 16 21 24 18 16 21 24 18 16 16 15 13 13 14 12 11 11 10 10 8 8 8 6 5 4
13 12 10 11 10 8 7 7 7 7 7 7 7 7 9 10 10 12 14 14 16 18 15 15 18 19 17 16 15 14 13 12 12 12 11 11 10 9 9 9 7 6 5 4
Wind_Direction
265 258 233 239 221 199 210 226 241 256 263 277 291 301 298 282 236 207 198 195 195 194 192 193 197 203 211 227 250 271 285 295 304 311 314 314 315 316 317 319 320 320 319 319
268 240 229 256 241 223 227 237 246 262 273 272 281 282 268 254 226 211 206 201 198 195 193 194 197 199 204 218 239 263 277 286 293 300 304 307 310 314 316 317 318 319 316 315
262 197 286 267 236 202 205 215 216 232 249 268 266 264 269 259 224 218 210 201 197 196 195 194 193 193 198 210 228 253 269 278 285 293 299 304 308 311 315 316 315 314 313 314
278 283 246 257 123 181 205 229 220 239 259 268 273 290 279 257 236 223 209 199 196 193 190 186 183 185 191 202 226 249 264 271 278 286 293 300 307 310 314 315 314 310 311 314
240 256 274 267 185 178 203 261 225 230 251 264 301 305 276 235 222 220 205 196 190 186 180 176 178 181 187 205 224 244 258 267 275 281 288 296 303 308 314 314 311 309 311 315
208 229 248 255 144 157 161 275 230 211 238 246 199 287 304 165 199 203 192 183 176 171 170 175 178 178 191 208 223 240 254 269 279 282 286 294 302 309 313 314 310 313 314 317
218 237 263 243 138 150 191 267 203 206 227 209 212 245 278 164 187 186 179 173 169 168 174 179 175 179 197 210 224 236 253 271 280 286 291 297 301 307 311 313 313 316 318 321
188 210 251 162 154 194 228 252 216 222 225 222 233 244 223 206 190 180 176 174 172 174 178 176 176 185 201 214 219 225 246 267 280 289 294 294 303 309 314 317 317 320 322 325
197 215 275 173 203 225 272 256 248 239 236 228 241 244 227 212 197 188 183 178 178 178 178 179 184 192 206 210 204 214 241 263 280 291 295 299 306 312 319 323 322 323 327 330
234 255 247 229 243 253 248 251 262 258 250 230 237 243 225 209 196 190 187 183 180 181 185 188 190 198 207 200 194 211 239 262 280 291 300 307 310 313 318 322 324 327 333 333
241 259 288 258 237 244 251 254 259 259 248 240 238 239 222 208 199 192 188 185 184 188 192 193 190 197 201 199 197 211 233 254 274 287 298 307 313 314 316 317 323 329 332 332
246 229 222 257 236 225 240 253 252 249 250 236 227 232 218 209 199 191 188 185 188 193 195 192 190 195 196 195 196 205 222 241 262 284 298 308 315 317 312 313 326 335 337 338
254 252 244 270 274 249 252 260 251 241 243 241 226 220 213 207 196 190 189 189 192 193 193 190 190 194 192 190 193 201 213 227 248 268 290 305 314 319 325 327 330 340 347 346
247 255 270 265 266 266 261 255 252 248 245 237 227 211 206 202 194 193 194 194 192 190 190 190 191 195 190 186 191 199 207 219 234 252 271 287 299 307 314 323 328 337 344 347
242 229 243 263 271 269 261 251 249 253 247 234 216 204 199 198 198 199 194 188 185 188 190 190 194 195 184 184 190 195 199 207 217 234 250 269 282 294 306 313 319 326 333 344
246 233 240 254 262 266 264 254 251 258 252 233 216 209 205 204 201 194 188 183 185 191 191 191 195 191 181 183 187 192 199 205 210 222 234 249 262 280 301 315 321 326 335 341
250 252 248 250 257 263 262 256 252 255 252 234 220 207 200 198 198 196 192 191 193 193 190 191 191 182 180 183 185 187 189 195 205 214 223 231 244 264 288 305 316 322 328 333
247 252 254 254 258 264 267 263 256 252 247 235 203 196 198 199 202 198 191 187 191 195 194 191 183 177 180 182 184 184 183 186 192 203 209 216 228 244 267 288 308 317 325 331
252 255 259 261 262 266 272 275 273 262 242 205 199 206 208 208 203 192 182 182 188 195 195 186 181 177 180 184 180 182 183 185 190 196 202 209 217 228 245 268 294 312 321 329
264 266 270 274 277 278 279 280 278 262 228 204 205 209 212 209 198 188 185 192 197 193 178 177 179 179 181 183 180 181 184 187 190 192 196 202 208 215 227 248 275 298 313 325
278 282 284 284 285 283 280 278 271 259 230 206 208 213 210 201 192 187 189 200 201 181 172 176 178 179 180 180 181 182 184 187 190 193 195 198 201 207 216 230 250 276 300 316
290 291 289 289 289 291 289 282 270 260 239 221 217 211 202 196 192 194 201 201 182 176 173 178 180 179 178 177 180 182 185 187 190 191 194 196 198 201 206 215 231 250 276 300
293 290 289 289 289 293 296 289 273 262 249 234 222 211 205 199 193 193 199 197 176 177 176 180 181 179 177 176 180 181 185 188 190 191 193 194 196 198 200 206 218 232 255 280
289 287 285 286 290 293 294 293 279 267 259 249 233 217 206 201 201 204 196 180 178 178 180 181 179 179 176 177 179 182 185 188 189 190 190 190 191 193 197 201 209 220 235 258
281 282 283 284 290 293 290 293 290 275 263 255 242 222 214 210 202 195 187 179 178 176 178 181 180 179 176 177 180 182 185 187 187 185 186 188 189 192 195 197 203 210 222 240
276 279 279 268 269 277 283 280 277 276 264 257 244 224 216 212 200 186 182 181 180 178 174 176 179 181 179 179 181 182 182 185 188 189 188 187 189 189 192 195 199 205 214 228
273 274 275 276 271 258 255 253 255 257 244 239 240 221 210 205 197 187 181 179 180 179 176 177 178 180 180 179 180 180 179 181 183 184 184 186 187 189 190 190 194 197 204 218
Height
1572 1574 1576 1572 1572 1578 1575 1565 1562 1546 1543 1533 1530 1531 1531 1531 1530 1529 1529 1530 1532 1535 1538 1539 1540 1541 1541 1540 1539 1537 1534 1530 1527 1522 1518 1512 1507 1501 1496 1490 1483 1477 1471 1464
1572 1573 1576 1574 1566 1567 1568 1565 1558 1551 1543 1529 1528 1528 1526 1525 1524 1522 1522 1524 1526 1529 1532 1534 1535 1536 1536 1536 1535 1533 1530 1527 1524 1519 1515 1510 1504 1499 1493 1487 1481 1475 1468 1462
1565 1570 1570 1556 1542 1554 1556 1551 1548 1543 1530 1523 1524 1523 1521 1519 1517 1515 1516 1517 1520 1523 1527 1529 1531 1532 1532 1532 1531 1529 1527 1524 1521 1517 1512 1507 1501 1496 1490 1485 1479 1473 1466 1460
1567 1565 1565 1530 1537 1539 1542 1538 1537 1530 1524 1521 1520 1518 1515 1512 1511 1509 1510 1512 1515 1518 1522 1524 1526 1527 1527 1527 1526 1525 1523 1521 1518 1514 1509 1504 1499 1493 1488 1482 1476 1470 1464 1459
1573 1563 1545 1530 1535 1538 1538 1529 1522 1524 1519 1516 1515 1513 1508 1506 1504 1504 1505 1507 1510 1514 1517 1519 1521 1522 1523 1523 1522 1521 1520 1517 1514 1510 1506 1501 1495 1490 1485 1479 1474 1468 1463 1457
1576 1566 1551 1522 1530 1531 1534 1527 1513 1514 1513 1512 1514 1511 1502 1501 1500 1500 1501 1503 1506 1509 1512 1514 1516 1517 1518 1518 1518 1517 1516 1514 1511 1507 1503 1498 1493 1488 1482 1477 1471 1466 1461 1456
1569 1562 1537 1522 1528 1532 1531 1516 1508 1507 1506 1507 1507 1503 1499 1497 1496 1496 1497 1498 1501 1504 1506 1509 1511 1512 1513 1514 1514 1513 1512 1510 1508 1504 1500 1495 1490 1485 1480 1474 1469 1464 1459 1454
1557 1557 1536 1522 1525 1522 1509 1504 1503 1502 1502 1500 1497 1495 1493 1491 1491 1491 1491 1493 1495 1498 1501 1503 1505 1507 1508 1509 1510 1509 1508 1507 1504 1501 1497 1493 1488 1483 1478 1472 1466 1462 1457 1452
1532 1521 1510 1510 1506 1504 1503 1501 1499 1497 1495 1493 1490 1487 1485 1484 1484 1484 1486 1487 1490 1493 1495 1498 1500 1502 1504 1505 1505 1505 1504 1503 1501 1498 1495 1490 1486 1481 1475 1470 1464 1460 1455 1451
1523 1510 1505 1504 1502 1500 1499 1496 1493 1491 1488 1485 1482 1479 1478 1477 1476 1477 1479 1481 1484 1486 1489 1492 1494 1496 1498 1499 1500 1501 1500 1499 1497 1495 1492 1489 1484 1479 1473 1468 1462 1458 1454 1449
1511 1501 1500 1494 1493 1492 1491 1488 1485 1483 1480 1477 1474 1471 1469 1468 1468 1469 1471 1474 1476 1479 1482 1486 1489 1491 1493 1494 1495 1496 1496 1495 1494 1492 1489 1486 1483 1478 1473 1467 1462 1458 1453 1448
1493 1490 1492 1485 1486 1485 1482 1479 1476 1474 1470 1467 1465 1462 1461 1459 1460 1461 1463 1466 1469 1472 1476 1479 1482 1485 1487 1488 1490 1491 1491 1491 1490 1489 1487 1484 1481 1477 1473 1468 1462 1457 1452 1447
1482 1482 1482 1477 1477 1476 1473 1469 1466 1463 1460 1457 1455 1454 1452 1451 1452 1453 1455 1458 1461 1464 1469 1472 1475 1478 1480 1482 1484 1486 1486 1487 1486 1485 1484 1482 1479 1475 1472 1468 1462 1457 1451 1446
1473 1475 1473 1469 1467 1465 1462 1457 1455 1452 1448 1446 1445 1443 1442 1442 1442 1443 1445 1449 1454 1458 1462 1465 1468 1471 1474 1476 1478 1480 1481 1482 1482 1481 1480 1478 1476 1473 1469 1465 1461 1456 1451 1446
1464 1465 1463 1459 1456 1452 1449 1445 1442 1439 1436 1433 1432 1432 1431 1431 1431 1433 1437 1442 1446 1449 1453 1457 1460 1464 1467 1470 1472 1474 1476 1477 1477 1477 1476 1475 1473 1471 1468 1464 1460 1455 1450 1446
1453 1454 1452 1449 1443 1437 1434 1431 1428 1424 1423 1420 1419 1418 1419 1421 1422 1425 1428 1431 1434 1438 1443 1448 1452 1457 1460 1463 1466 1468 1470 1471 1472 1473 1472 1472 1470 1468 1466 1462 1459 1454 1450 1445
1444 1440 1437 1434 1429 1423 1419 1416 1414 1411 1410 1408 1406 1408 1409 1409 1411 1413 1416 1420 1426 1431 1435 1440 1445 1449 1453 1456 1459 1462 1464 1466 1467 1468 1468 1468 1467 1466 1463 1460 1457 1453 1449 1444
1427 1423 1421 1420 1415 1410 1405 1402 1401 1399 1398 1397 1397 1398 1397 1396 1396 1399 1405 1411 1416 1421 1426 1432 1437 1442 1445 1449 1453 1456 1458 1460 1461 1463 1463 1464 1463 1463 1461 1458 1455 1452 1448 1444
1415 1413 1411 1409 1405 1401 1396 1392 1390 1389 1388 1386 1385 1385 1384 1384 1386 1389 1395 1399 1403 1407 1414 1422 1428 1433 1437 1442 1446 1449 1452 1454 1456 1457 1459 1459 1460 1459 1458 1456 1453 1451 1447 1443
1408 1405 1402 1398 1395 1392 1387 1383 1380 1377 1375 1373 1372 1371 1371 1371 1374 1377 1381 1385 1389 1397 1405 1413 1419 1424 1429 1434 1439 1442 1445 1448 1450 1452 1453 1455 1455 1455 1455 1453 1451 1449 1446 1442
1399 1396 1393 1389 1385 1381 1377 1373 1369 1365 1362 1360 1358 1356 1356 1358 1362 1365 1369 1374 1381 1391 1397 1404 1409 1415 1421 1426 1431 1435 1438 1441 1444 1446 1448 1449 1451 1451 1451 1450 1448 1446 1444 1441
1392 1388 1385 1381 1376 1372 1368 1364 1359 1355 1351 1348 1345 1344 1345 1346 1348 1352 1357 1364 1372 1380 1387 1393 1400 1406 1413 1419 1423 1428 1431 1435 1437 1440 1442 1444 1446 1447 1447 1446 1445 1444 1441 1439
1386 1382 1378 1374 1369 1364 1360 1356 1351 1347 1342 1338 1336 1334 1334 1335 1338 1341 1345 1354 1362 1370 1378 1384 1391 1399 1406 1411 1415 1420 1425 1428 1431 1434 1436 1438 1440 1442 1442 1443 1442 1441 1439 1436
1379 1375 1371 1367 1362 1357 1353 1349 1345 1340 1335 1330 1328 1326 1326 1327 1329 1333 1340 1346 1353 1361 1369 1376 1384 1391 1397 1402 1407 1412 1417 1421 1424 1427 1430 1433 1435 1437 1438 1438 1438 1437 1436 1434
1370 1367 1364 1360 1355 1351 1347 1343 1339 1334 1329 1324 1320 1319 1319 1320 1323 1326 1332 1338 1345 1354 1361 1369 1376 1383 1388 1393 1399 1405 1409 1414 1418 1421 1424 1426 1429 1431 1433 1434 1434 1434 1433 1431
1361 1357 1355 1352 1348 1345 1341 1337 1333 1329 1324 1319 1315 1314 1313 1314 1316 1319 1324 1331 1338 1345 1353 1361 1367 1374 1379 1385 1391 1397 1402 1407 1411 1414 1417 1421 1423 1426 1428 1429 1430 1430 1429 1428
1349 1346 1344 1341 1339 1336 1333 1330 1326 1323 1319 1315 1311 1309 1308 1308 1310 1313 1318 1323 1330 1336 1344 1352 1359 1364 1371 1377 1383 1389 1395 1400 1404 1408 1411 1415 1417 1420 1422 1424 1425 1425 1425 1425